Year,Month,Day,Hour,Minute,Value (Times are PST for temperature in C)
2008,09,28,00,00,9.30
2008,09,28,00,01,9.30
2008,09,28,00,02,9.30
2008,09,28,00,03,9.30
2008,09,28,00,04,9.40
2008,09,28,00,05,9.40
2008,09,28,00,06,9.40
2008,09,28,00,07,9.40
2008,09,28,00,08,9.40
2008,09,28,00,09,9.40
2008,09,28,00,10,9.40
2008,09,28,00,11,9.40
2008,09,28,00,12,9.30
2008,09,28,00,13,9.30
2008,09,28,00,14,9.30
2008,09,28,00,15,9.30
2008,09,28,00,16,9.20
2008,09,28,00,17,9.20
2008,09,28,00,18,9.20
2008,09,28,00,19,9.20
2008,09,28,00,20,9.20
2008,09,28,00,21,9.20
2008,09,28,00,22,9.20
2008,09,28,00,23,9.10
2008,09,28,00,24,9.10
2008,09,28,00,25,9.10
2008,09,28,00,26,9.10
2008,09,28,00,27,9.10
2008,09,28,00,28,9.10
2008,09,28,00,29,9.10
2008,09,28,00,30,9.10
2008,09,28,00,31,9.00
2008,09,28,00,32,9.00
2008,09,28,00,33,9.00
2008,09,28,00,34,8.90
2008,09,28,00,35,8.90
2008,09,28,00,36,8.90
2008,09,28,00,37,8.90
2008,09,28,00,38,8.90
2008,09,28,00,39,8.90
2008,09,28,00,40,8.90
2008,09,28,00,41,8.90
2008,09,28,00,42,8.90
2008,09,28,00,43,9.00
2008,09,28,00,44,9.00
2008,09,28,00,45,9.10
2008,09,28,00,46,9.10
2008,09,28,00,47,9.20
2008,09,28,00,48,9.20
2008,09,28,00,49,9.30
2008,09,28,00,50,9.30
2008,09,28,00,51,9.30
2008,09,28,00,52,9.30
2008,09,28,00,53,9.30
2008,09,28,00,54,9.30
2008,09,28,00,55,9.30
2008,09,28,00,56,9.30
2008,09,28,00,57,9.30
2008,09,28,00,58,9.20
2008,09,28,00,59,9.20
2008,09,28,01,00,9.20
2008,09,28,01,01,9.20
2008,09,28,01,02,9.10
2008,09,28,01,03,9.10
2008,09,28,01,04,9.00
2008,09,28,01,05,9.00
2008,09,28,01,06,9.00
2008,09,28,01,07,8.90
2008,09,28,01,08,8.90
2008,09,28,01,09,8.90
2008,09,28,01,10,8.90
2008,09,28,01,11,8.90
2008,09,28,01,12,8.90
2008,09,28,01,13,8.90
2008,09,28,01,14,8.90
2008,09,28,01,15,8.90
2008,09,28,01,16,8.80
2008,09,28,01,17,8.80
2008,09,28,01,18,8.80
2008,09,28,01,19,8.80
2008,09,28,01,20,8.80
2008,09,28,01,21,8.80
2008,09,28,01,22,8.80
2008,09,28,01,23,8.80
2008,09,28,01,24,8.80
2008,09,28,01,25,8.80
2008,09,28,01,26,8.70
2008,09,28,01,27,8.70
2008,09,28,01,28,8.70
2008,09,28,01,29,8.70
2008,09,28,01,30,8.70
2008,09,28,01,31,8.70
2008,09,28,01,32,8.70
2008,09,28,01,33,8.60
2008,09,28,01,34,8.60
2008,09,28,01,35,8.60
2008,09,28,01,36,8.60
2008,09,28,01,37,8.60
2008,09,28,01,38,8.50
2008,09,28,01,39,8.50
2008,09,28,01,40,8.50
2008,09,28,01,41,8.50
2008,09,28,01,42,8.50
2008,09,28,01,43,8.50
2008,09,28,01,44,8.50
2008,09,28,01,45,8.40
2008,09,28,01,46,8.40
2008,09,28,01,47,8.40
2008,09,28,01,48,8.40
2008,09,28,01,49,8.40
2008,09,28,01,50,8.30
2008,09,28,01,51,8.30
2008,09,28,01,52,8.30
2008,09,28,01,53,8.30
2008,09,28,01,54,8.30
2008,09,28,01,55,8.40
2008,09,28,01,56,8.40
2008,09,28,01,57,8.40
2008,09,28,01,58,8.50
2008,09,28,01,59,8.60
2008,09,28,02,00,8.60
2008,09,28,02,01,8.70
2008,09,28,02,02,8.70
2008,09,28,02,03,8.70
2008,09,28,02,04,8.70
2008,09,28,02,05,8.70
2008,09,28,02,06,8.70
2008,09,28,02,07,8.70
2008,09,28,02,08,8.70
2008,09,28,02,09,8.70
2008,09,28,02,10,8.80
2008,09,28,02,11,8.80
2008,09,28,02,12,8.90
2008,09,28,02,13,8.90
2008,09,28,02,14,8.90
2008,09,28,02,15,9.00
2008,09,28,02,16,9.00
2008,09,28,02,17,9.00
2008,09,28,02,18,9.00
2008,09,28,02,19,9.10
2008,09,28,02,20,9.10
2008,09,28,02,21,9.10
2008,09,28,02,22,9.10
2008,09,28,02,23,9.20
2008,09,28,02,24,9.20
2008,09,28,02,25,9.20
2008,09,28,02,26,9.20
2008,09,28,02,27,9.30
2008,09,28,02,28,9.30
2008,09,28,02,29,9.30
2008,09,28,02,30,9.40
2008,09,28,02,31,9.40
2008,09,28,02,32,9.50
2008,09,28,02,33,9.50
2008,09,28,02,34,9.60
2008,09,28,02,35,9.60
2008,09,28,02,36,9.70
2008,09,28,02,37,9.70
2008,09,28,02,38,9.70
2008,09,28,02,39,9.70
2008,09,28,02,40,9.80
2008,09,28,02,41,9.80
2008,09,28,02,42,9.80
2008,09,28,02,43,9.90
2008,09,28,02,44,9.90
2008,09,28,02,45,9.90
2008,09,28,02,46,10.00
2008,09,28,02,47,10.00
2008,09,28,02,48,10.00
2008,09,28,02,49,10.00
2008,09,28,02,50,10.10
2008,09,28,02,51,10.10
2008,09,28,02,52,10.10
2008,09,28,02,53,10.20
2008,09,28,02,54,10.20
2008,09,28,02,55,10.20
2008,09,28,02,56,10.20
2008,09,28,02,57,10.20
2008,09,28,02,58,10.20
2008,09,28,02,59,10.20
2008,09,28,03,00,10.20
2008,09,28,03,01,10.20
2008,09,28,03,02,10.20
2008,09,28,03,03,10.20
2008,09,28,03,04,10.20
2008,09,28,03,05,10.30
2008,09,28,03,06,10.30
2008,09,28,03,07,10.30
2008,09,28,03,08,10.30
2008,09,28,03,09,10.30
2008,09,28,03,10,10.40
2008,09,28,03,11,10.40
2008,09,28,03,12,10.30
2008,09,28,03,13,10.30
2008,09,28,03,14,10.30
2008,09,28,03,15,10.40
2008,09,28,03,16,10.40
2008,09,28,03,17,10.40
2008,09,28,03,18,10.30
2008,09,28,03,19,10.30
2008,09,28,03,20,10.30
2008,09,28,03,21,10.30
2008,09,28,03,22,10.30
2008,09,28,03,23,10.30
2008,09,28,03,24,10.30
2008,09,28,03,25,10.30
2008,09,28,03,26,10.30
2008,09,28,03,27,10.30
2008,09,28,03,28,10.40
2008,09,28,03,29,10.40
2008,09,28,03,30,10.40
2008,09,28,03,31,10.40
2008,09,28,03,32,10.40
2008,09,28,03,33,10.40
2008,09,28,03,34,10.50
2008,09,28,03,35,10.50
2008,09,28,03,36,10.50
2008,09,28,03,37,10.50
2008,09,28,03,38,10.50
2008,09,28,03,39,10.60
2008,09,28,03,40,10.60
2008,09,28,03,41,10.60
2008,09,28,03,42,10.60
2008,09,28,03,43,10.60
2008,09,28,03,44,10.60
2008,09,28,03,45,10.70
2008,09,28,03,46,10.70
2008,09,28,03,47,10.70
2008,09,28,03,48,10.70
2008,09,28,03,49,10.70
2008,09,28,03,50,10.70
2008,09,28,03,51,10.80
2008,09,28,03,52,10.80
2008,09,28,03,53,10.80
2008,09,28,03,54,10.80
2008,09,28,03,55,10.80
2008,09,28,03,56,10.80
2008,09,28,03,57,10.80
2008,09,28,03,58,10.80
2008,09,28,03,59,10.90
2008,09,28,04,00,11.00
2008,09,28,04,01,11.00
2008,09,28,04,02,11.00
2008,09,28,04,03,11.00
2008,09,28,04,04,10.90
2008,09,28,04,05,10.90
2008,09,28,04,06,10.90
2008,09,28,04,07,10.90
2008,09,28,04,08,10.90
2008,09,28,04,09,10.90
2008,09,28,04,10,10.90
2008,09,28,04,11,11.00
2008,09,28,04,12,11.00
2008,09,28,04,13,11.00
2008,09,28,04,14,11.10
2008,09,28,04,15,11.20
2008,09,28,04,16,11.20
2008,09,28,04,17,11.20
2008,09,28,04,18,11.30
2008,09,28,04,19,11.30
2008,09,28,04,20,11.30
2008,09,28,04,21,11.30
2008,09,28,04,22,11.30
2008,09,28,04,23,11.30
2008,09,28,04,24,11.30
2008,09,28,04,25,11.30
2008,09,28,04,26,11.30
2008,09,28,04,27,11.20
2008,09,28,04,28,11.20
2008,09,28,04,29,11.20
2008,09,28,04,30,11.20
2008,09,28,04,31,11.30
2008,09,28,04,32,11.30
2008,09,28,04,33,11.40
2008,09,28,04,34,11.50
2008,09,28,04,35,11.50
2008,09,28,04,36,11.60
2008,09,28,04,37,11.60
2008,09,28,04,38,11.70
2008,09,28,04,39,11.70
2008,09,28,04,40,11.70
2008,09,28,04,41,11.80
2008,09,28,04,42,11.80
2008,09,28,04,43,11.80
2008,09,28,04,44,11.90
2008,09,28,04,45,11.90
2008,09,28,04,46,11.90
2008,09,28,04,47,11.90
2008,09,28,04,48,12.00
2008,09,28,04,49,12.10
2008,09,28,04,50,12.10
2008,09,28,04,51,12.20
2008,09,28,04,52,12.20
2008,09,28,04,53,12.20
2008,09,28,04,54,12.30
2008,09,28,04,55,12.30
2008,09,28,04,56,12.30
2008,09,28,04,57,12.40
2008,09,28,04,58,12.40
2008,09,28,04,59,12.40
2008,09,28,05,00,12.50
2008,09,28,05,01,12.50
2008,09,28,05,02,12.60
2008,09,28,05,03,12.60
2008,09,28,05,04,12.60
2008,09,28,05,05,12.60
2008,09,28,05,06,12.60
2008,09,28,05,07,12.60
2008,09,28,05,08,12.70
2008,09,28,05,09,12.70
2008,09,28,05,10,12.70
2008,09,28,05,11,12.70
2008,09,28,05,12,12.70
2008,09,28,05,13,12.70
2008,09,28,05,14,12.70
2008,09,28,05,15,12.70
2008,09,28,05,16,12.70
2008,09,28,05,17,12.70
2008,09,28,05,18,12.70
2008,09,28,05,19,12.70
2008,09,28,05,20,12.70
2008,09,28,05,21,12.70
2008,09,28,05,22,12.70
2008,09,28,05,23,12.70
2008,09,28,05,24,12.70
2008,09,28,05,25,12.70
2008,09,28,05,26,12.70
2008,09,28,05,27,12.70
2008,09,28,05,28,12.70
2008,09,28,05,29,12.70
2008,09,28,05,30,12.60
2008,09,28,05,31,12.60
2008,09,28,05,32,12.60
2008,09,28,05,33,12.70
2008,09,28,05,34,12.60
2008,09,28,05,35,12.60
2008,09,28,05,36,12.60
2008,09,28,05,37,12.60
2008,09,28,05,38,12.60
2008,09,28,05,39,12.60
2008,09,28,05,40,12.60
2008,09,28,05,41,12.70
2008,09,28,05,42,12.70
2008,09,28,05,43,12.70
2008,09,28,05,44,12.70
2008,09,28,05,45,12.70
2008,09,28,05,46,12.70
2008,09,28,05,47,12.70
2008,09,28,05,48,12.70
2008,09,28,05,49,12.70
2008,09,28,05,50,12.70
2008,09,28,05,51,12.70
2008,09,28,05,52,12.70
2008,09,28,05,53,12.70
2008,09,28,05,54,12.70
2008,09,28,05,55,12.70
2008,09,28,05,56,12.70
2008,09,28,05,57,12.70
2008,09,28,05,58,12.70
2008,09,28,05,59,12.70
2008,09,28,06,00,12.70
2008,09,28,06,01,12.70
2008,09,28,06,02,12.70
2008,09,28,06,03,12.70
2008,09,28,06,04,12.70
2008,09,28,06,05,12.70
2008,09,28,06,06,12.70
2008,09,28,06,07,12.60
2008,09,28,06,08,12.60
2008,09,28,06,09,12.60
2008,09,28,06,10,12.60
2008,09,28,06,11,12.60
2008,09,28,06,12,12.50
2008,09,28,06,13,12.50
2008,09,28,06,14,12.50
2008,09,28,06,15,12.50
2008,09,28,06,16,12.40
2008,09,28,06,17,12.40
2008,09,28,06,18,12.40
2008,09,28,06,19,12.40
2008,09,28,06,20,12.40
2008,09,28,06,21,12.40
2008,09,28,06,22,12.40
2008,09,28,06,23,12.40
2008,09,28,06,24,12.40
2008,09,28,06,25,12.40
2008,09,28,06,26,12.40
2008,09,28,06,27,12.40
2008,09,28,06,28,12.40
2008,09,28,06,29,12.30
2008,09,28,06,30,12.30
2008,09,28,06,31,12.30
2008,09,28,06,32,12.30
2008,09,28,06,33,12.30
2008,09,28,06,34,12.20
2008,09,28,06,35,12.20
2008,09,28,06,36,12.20
2008,09,28,06,37,12.20
2008,09,28,06,38,12.10
2008,09,28,06,39,12.10
2008,09,28,06,40,12.10
2008,09,28,06,41,12.10
2008,09,28,06,42,12.10
2008,09,28,06,43,12.10
2008,09,28,06,44,12.00
2008,09,28,06,45,12.10
2008,09,28,06,46,12.10
2008,09,28,06,47,12.10
2008,09,28,06,48,12.00
2008,09,28,06,49,12.00
2008,09,28,06,50,12.00
2008,09,28,06,51,12.00
2008,09,28,06,52,12.00
2008,09,28,06,53,12.00
2008,09,28,06,54,12.10
2008,09,28,06,55,12.10
2008,09,28,06,56,12.10
2008,09,28,06,57,12.10
2008,09,28,06,58,12.00
2008,09,28,06,59,12.00
2008,09,28,07,00,12.00
2008,09,28,07,01,12.00
2008,09,28,07,02,12.00
2008,09,28,07,03,12.00
2008,09,28,07,04,11.90
2008,09,28,07,05,11.90
2008,09,28,07,06,11.90
2008,09,28,07,07,11.80
2008,09,28,07,08,11.80
2008,09,28,07,09,11.80
2008,09,28,07,10,11.80
2008,09,28,07,11,11.80
2008,09,28,07,12,11.80
2008,09,28,07,13,11.80
2008,09,28,07,14,11.80
2008,09,28,07,15,11.80
2008,09,28,07,16,11.80
2008,09,28,07,17,11.80
2008,09,28,07,18,11.80
2008,09,28,07,19,11.80
2008,09,28,07,20,11.80
2008,09,28,07,21,11.70
2008,09,28,07,22,11.70
2008,09,28,07,23,11.80
2008,09,28,07,24,11.70
2008,09,28,07,25,11.70
2008,09,28,07,26,11.70
2008,09,28,07,27,11.70
2008,09,28,07,28,11.80
2008,09,28,07,29,11.70
2008,09,28,07,30,11.70
2008,09,28,07,31,11.70
2008,09,28,07,32,11.80
2008,09,28,07,33,11.80
2008,09,28,07,34,11.80
2008,09,28,07,35,11.80
2008,09,28,07,36,11.80
2008,09,28,07,37,11.80
2008,09,28,07,38,11.80
2008,09,28,07,39,11.80
2008,09,28,07,40,11.80
2008,09,28,07,41,11.80
2008,09,28,07,42,11.80
2008,09,28,07,43,11.80
2008,09,28,07,44,11.80
2008,09,28,07,45,11.80
2008,09,28,07,46,11.80
2008,09,28,07,47,11.80
2008,09,28,07,48,11.80
2008,09,28,07,49,11.80
2008,09,28,07,50,11.80
2008,09,28,07,51,11.80
2008,09,28,07,52,11.80
2008,09,28,07,53,11.80
2008,09,28,07,54,11.80
2008,09,28,07,55,11.80
2008,09,28,07,56,11.80
2008,09,28,07,57,11.80
2008,09,28,07,58,11.80
2008,09,28,07,59,11.80
2008,09,28,08,00,11.80
2008,09,28,08,01,11.80
2008,09,28,08,02,11.80
2008,09,28,08,03,11.80
2008,09,28,08,04,11.80
2008,09,28,08,05,11.80
2008,09,28,08,06,11.80
2008,09,28,08,07,11.80
2008,09,28,08,08,11.80
2008,09,28,08,09,11.80
2008,09,28,08,10,11.80
2008,09,28,08,11,11.70
2008,09,28,08,12,11.70
2008,09,28,08,13,11.70
2008,09,28,08,14,11.70
2008,09,28,08,15,11.70
2008,09,28,08,16,11.60
2008,09,28,08,17,11.60
2008,09,28,08,18,11.60
2008,09,28,08,19,11.60
2008,09,28,08,20,11.50
2008,09,28,08,21,11.50
2008,09,28,08,22,11.50
2008,09,28,08,23,11.50
2008,09,28,08,24,11.50
2008,09,28,08,25,11.50
2008,09,28,08,26,11.50
2008,09,28,08,27,11.50
2008,09,28,08,28,11.60
2008,09,28,08,29,11.60
2008,09,28,08,30,11.60
2008,09,28,08,31,11.60
2008,09,28,08,32,11.70
2008,09,28,08,33,11.70
2008,09,28,08,34,11.70
2008,09,28,08,35,11.80
2008,09,28,08,36,11.90
2008,09,28,08,37,11.90
2008,09,28,08,38,11.90
2008,09,28,08,39,12.00
2008,09,28,08,40,12.10
2008,09,28,08,41,12.10
2008,09,28,08,42,12.20
2008,09,28,08,43,12.20
2008,09,28,08,44,12.20
2008,09,28,08,45,12.30
2008,09,28,08,46,12.30
2008,09,28,08,47,12.30
2008,09,28,08,48,12.40
2008,09,28,08,49,12.40
2008,09,28,08,50,12.40
2008,09,28,08,51,12.50
2008,09,28,08,52,12.50
2008,09,28,08,53,12.60
2008,09,28,08,54,12.60
2008,09,28,08,55,12.60
2008,09,28,08,56,12.70
2008,09,28,08,57,12.70
2008,09,28,08,58,12.70
2008,09,28,08,59,12.80
2008,09,28,09,00,12.80
2008,09,28,09,01,12.80
2008,09,28,09,02,12.80
2008,09,28,09,03,12.80
2008,09,28,09,04,12.80
2008,09,28,09,05,12.80
2008,09,28,09,06,12.80
2008,09,28,09,07,12.80
2008,09,28,09,08,12.80
2008,09,28,09,09,12.90
2008,09,28,09,10,12.90
2008,09,28,09,11,12.90
2008,09,28,09,12,12.90
2008,09,28,09,13,12.90
2008,09,28,09,14,12.90
2008,09,28,09,15,13.00
2008,09,28,09,16,13.00
2008,09,28,09,17,13.00
2008,09,28,09,18,13.00
2008,09,28,09,19,13.00
2008,09,28,09,20,13.00
2008,09,28,09,21,13.00
2008,09,28,09,22,13.10
2008,09,28,09,23,13.00
2008,09,28,09,24,13.00
2008,09,28,09,25,13.00
2008,09,28,09,26,13.00
2008,09,28,09,27,13.00
2008,09,28,09,28,13.00
2008,09,28,09,29,13.00
2008,09,28,09,30,13.10
2008,09,28,09,31,13.10
2008,09,28,09,32,13.10
2008,09,28,09,33,13.10
2008,09,28,09,34,13.00
2008,09,28,09,35,13.00
2008,09,28,09,36,13.00
2008,09,28,09,37,13.00
2008,09,28,09,38,13.00
2008,09,28,09,39,13.00
2008,09,28,09,40,13.00
2008,09,28,09,41,13.00
2008,09,28,09,42,12.90
2008,09,28,09,43,12.90
2008,09,28,09,44,12.90
2008,09,28,09,45,13.00
2008,09,28,09,46,13.00
2008,09,28,09,47,13.00
2008,09,28,09,48,13.00
2008,09,28,09,49,13.00
2008,09,28,09,50,13.00
2008,09,28,09,51,13.00
2008,09,28,09,52,13.00
2008,09,28,09,53,13.00
2008,09,28,09,54,13.00
2008,09,28,09,55,12.90
2008,09,28,09,56,12.90
2008,09,28,09,57,12.90
2008,09,28,09,58,12.80
2008,09,28,09,59,12.80
2008,09,28,10,00,12.80
2008,09,28,10,01,12.80
2008,09,28,10,02,12.80
2008,09,28,10,03,12.80
2008,09,28,10,04,12.80
2008,09,28,10,05,12.80
2008,09,28,10,06,12.90
2008,09,28,10,07,12.90
2008,09,28,10,08,13.00
2008,09,28,10,09,13.10
2008,09,28,10,10,13.00
2008,09,28,10,11,13.00
2008,09,28,10,12,13.00
2008,09,28,10,13,13.10
2008,09,28,10,14,13.00
2008,09,28,10,15,13.00
2008,09,28,10,16,13.10
2008,09,28,10,17,13.10
2008,09,28,10,18,13.10
2008,09,28,10,19,13.00
2008,09,28,10,20,13.00
2008,09,28,10,21,13.00
2008,09,28,10,22,13.10
2008,09,28,10,23,13.10
2008,09,28,10,24,13.10
2008,09,28,10,25,13.20
2008,09,28,10,26,13.20
2008,09,28,10,27,13.20
2008,09,28,10,28,13.20
2008,09,28,10,29,13.20
2008,09,28,10,30,13.30
2008,09,28,10,31,13.30
2008,09,28,10,32,13.20
2008,09,28,10,33,13.20
2008,09,28,10,34,13.10
2008,09,28,10,35,13.10
2008,09,28,10,36,13.10
2008,09,28,10,37,13.20
2008,09,28,10,38,13.20
2008,09,28,10,39,13.30
2008,09,28,10,40,13.30
2008,09,28,10,41,13.40
2008,09,28,10,42,13.30
2008,09,28,10,43,13.40
2008,09,28,10,44,13.40
2008,09,28,10,45,13.40
2008,09,28,10,46,13.30
2008,09,28,10,47,13.40
2008,09,28,10,48,13.40
2008,09,28,10,49,13.40
2008,09,28,10,50,13.40
2008,09,28,10,51,13.50
2008,09,28,10,52,13.40
2008,09,28,10,53,13.40
2008,09,28,10,54,13.40
2008,09,28,10,55,13.40
2008,09,28,10,56,13.40
2008,09,28,10,57,13.40
2008,09,28,10,58,13.40
2008,09,28,10,59,13.50
2008,09,28,11,00,13.50
2008,09,28,11,01,13.60
2008,09,28,11,02,13.60
2008,09,28,11,03,13.70
2008,09,28,11,04,13.70
2008,09,28,11,05,13.70
2008,09,28,11,06,13.70
2008,09,28,11,07,13.70
2008,09,28,11,08,13.70
2008,09,28,11,09,13.60
2008,09,28,11,10,13.60
2008,09,28,11,11,13.60
2008,09,28,11,12,13.70
2008,09,28,11,13,13.70
2008,09,28,11,14,13.70
2008,09,28,11,15,13.70
2008,09,28,11,16,13.70
2008,09,28,11,17,13.70
2008,09,28,11,18,13.70
2008,09,28,11,19,13.80
2008,09,28,11,20,13.80
2008,09,28,11,21,13.80
2008,09,28,11,22,13.80
2008,09,28,11,23,13.90
2008,09,28,11,24,13.90
2008,09,28,11,25,14.00
2008,09,28,11,26,14.00
2008,09,28,11,27,13.90
2008,09,28,11,28,13.90
2008,09,28,11,29,13.90
2008,09,28,11,30,13.90
2008,09,28,11,31,14.00
2008,09,28,11,32,14.10
2008,09,28,11,33,14.10
2008,09,28,11,34,14.00
2008,09,28,11,35,14.10
2008,09,28,11,36,14.10
2008,09,28,11,37,14.00
2008,09,28,11,38,14.00
2008,09,28,11,39,14.00
2008,09,28,11,40,14.00
2008,09,28,11,41,14.00
2008,09,28,11,42,14.00
2008,09,28,11,43,14.10
2008,09,28,11,44,14.20
2008,09,28,11,45,14.10
2008,09,28,11,46,14.10
2008,09,28,11,47,14.10
2008,09,28,11,48,14.10
2008,09,28,11,49,14.20
2008,09,28,11,50,14.20
2008,09,28,11,51,14.30
2008,09,28,11,52,14.40
2008,09,28,11,53,14.40
2008,09,28,11,54,14.40
2008,09,28,11,55,14.50
2008,09,28,11,56,14.60
2008,09,28,11,57,14.60
2008,09,28,11,58,14.70
2008,09,28,11,59,14.70
2008,09,28,12,00,14.80
2008,09,28,12,01,14.80
2008,09,28,12,02,14.80
2008,09,28,12,03,14.80
2008,09,28,12,04,14.80
2008,09,28,12,05,14.70
2008,09,28,12,06,14.60
2008,09,28,12,07,14.60
2008,09,28,12,08,14.70
2008,09,28,12,09,14.70
2008,09,28,12,10,14.70
2008,09,28,12,11,14.70
2008,09,28,12,12,14.60
2008,09,28,12,13,14.60
2008,09,28,12,14,14.70
2008,09,28,12,15,14.70
2008,09,28,12,16,14.70
2008,09,28,12,17,14.70
2008,09,28,12,18,14.80
2008,09,28,12,19,14.80
2008,09,28,12,20,14.90
2008,09,28,12,21,14.90
2008,09,28,12,22,14.80
2008,09,28,12,23,14.80
2008,09,28,12,24,14.70
2008,09,28,12,25,14.70
2008,09,28,12,26,14.70
2008,09,28,12,27,14.70
2008,09,28,12,28,14.70
2008,09,28,12,29,14.80
2008,09,28,12,30,14.80
2008,09,28,12,31,14.80
2008,09,28,12,32,14.80
2008,09,28,12,33,14.80
2008,09,28,12,34,14.80
2008,09,28,12,35,14.90
2008,09,28,12,36,15.00
2008,09,28,12,37,15.00
2008,09,28,12,38,15.00
2008,09,28,12,39,15.00
2008,09,28,12,40,15.20
2008,09,28,12,41,15.20
2008,09,28,12,42,15.20
2008,09,28,12,43,15.30
2008,09,28,12,44,15.40
2008,09,28,12,45,15.30
2008,09,28,12,46,15.30
2008,09,28,12,47,15.30
2008,09,28,12,48,15.30
2008,09,28,12,49,15.30
2008,09,28,12,50,15.20
2008,09,28,12,51,15.20
2008,09,28,12,52,15.10
2008,09,28,12,53,15.10
2008,09,28,12,54,15.20
2008,09,28,12,55,15.20
2008,09,28,12,56,15.30
2008,09,28,12,57,15.30
2008,09,28,12,58,15.30
2008,09,28,12,59,15.30
2008,09,28,13,00,15.30
2008,09,28,13,01,15.30
2008,09,28,13,02,15.40
2008,09,28,13,03,15.50
2008,09,28,13,04,15.50
2008,09,28,13,05,15.60
2008,09,28,13,06,15.60
2008,09,28,13,07,15.60
2008,09,28,13,08,15.60
2008,09,28,13,09,15.70
2008,09,28,13,10,15.80
2008,09,28,13,11,15.80
2008,09,28,13,12,15.80
2008,09,28,13,13,15.80
2008,09,28,13,14,15.80
2008,09,28,13,15,15.80
2008,09,28,13,16,15.90
2008,09,28,13,17,15.90
2008,09,28,13,18,16.00
2008,09,28,13,19,16.10
2008,09,28,13,20,16.10
2008,09,28,13,21,16.10
2008,09,28,13,22,16.00
2008,09,28,13,23,15.90
2008,09,28,13,24,15.80
2008,09,28,13,25,15.80
2008,09,28,13,26,15.80
2008,09,28,13,27,15.90
2008,09,28,13,28,15.80
2008,09,28,13,29,15.80
2008,09,28,13,30,15.80
2008,09,28,13,31,15.80
2008,09,28,13,32,15.80
2008,09,28,13,33,15.70
2008,09,28,13,34,15.70
2008,09,28,13,35,15.70
2008,09,28,13,36,15.70
2008,09,28,13,37,15.70
2008,09,28,13,38,15.80
2008,09,28,13,39,15.90
2008,09,28,13,40,15.90
2008,09,28,13,41,15.90
2008,09,28,13,42,16.00
2008,09,28,13,43,16.10
2008,09,28,13,44,16.10
2008,09,28,13,45,16.10
2008,09,28,13,46,16.20
2008,09,28,13,47,16.20
2008,09,28,13,48,16.10
2008,09,28,13,49,16.10
2008,09,28,13,50,16.10
2008,09,28,13,51,16.00
2008,09,28,13,52,16.10
2008,09,28,13,53,16.10
2008,09,28,13,54,16.20
2008,09,28,13,55,16.10
2008,09,28,13,56,16.00
2008,09,28,13,57,15.90
2008,09,28,13,58,15.90
2008,09,28,13,59,16.00
2008,09,28,14,00,16.00
2008,09,28,14,01,15.90
2008,09,28,14,02,16.00
2008,09,28,14,03,16.00
2008,09,28,14,04,15.90
2008,09,28,14,05,15.90
2008,09,28,14,06,16.00
2008,09,28,14,07,16.00
2008,09,28,14,08,16.00
2008,09,28,14,09,16.10
2008,09,28,14,10,16.00
2008,09,28,14,11,16.00
2008,09,28,14,12,15.90
2008,09,28,14,13,16.00
2008,09,28,14,14,16.00
2008,09,28,14,15,16.00
2008,09,28,14,16,16.00
2008,09,28,14,17,16.00
2008,09,28,14,18,15.90
2008,09,28,14,19,15.90
2008,09,28,14,20,15.90
2008,09,28,14,21,16.00
2008,09,28,14,22,16.00
2008,09,28,14,23,16.00
2008,09,28,14,24,16.00
2008,09,28,14,25,16.10
2008,09,28,14,26,16.10
2008,09,28,14,27,16.10
2008,09,28,14,28,16.10
2008,09,28,14,29,16.10
2008,09,28,14,30,16.20
2008,09,28,14,31,16.20
2008,09,28,14,32,16.30
2008,09,28,14,33,16.30
2008,09,28,14,34,16.30
2008,09,28,14,35,16.30
2008,09,28,14,36,16.30
2008,09,28,14,37,16.40
2008,09,28,14,38,16.50
2008,09,28,14,39,16.50
2008,09,28,14,40,16.60
2008,09,28,14,41,16.60
2008,09,28,14,42,16.70
2008,09,28,14,43,16.70
2008,09,28,14,44,16.60
2008,09,28,14,45,16.60
2008,09,28,14,46,16.50
2008,09,28,14,47,16.40
2008,09,28,14,48,16.40
2008,09,28,14,49,16.40
2008,09,28,14,50,16.40
2008,09,28,14,51,16.30
2008,09,28,14,52,16.30
2008,09,28,14,53,16.30
2008,09,28,14,54,16.30
2008,09,28,14,55,16.30
2008,09,28,14,56,16.30
2008,09,28,14,57,16.30
2008,09,28,14,58,16.30
2008,09,28,14,59,16.30
2008,09,28,15,00,16.40
2008,09,28,15,01,16.40
2008,09,28,15,02,16.40
2008,09,28,15,03,16.40
2008,09,28,15,04,16.30
2008,09,28,15,05,16.20
2008,09,28,15,06,16.20
2008,09,28,15,07,16.20
2008,09,28,15,08,16.30
2008,09,28,15,09,16.30
2008,09,28,15,10,16.30
2008,09,28,15,11,16.40
2008,09,28,15,12,16.40
2008,09,28,15,13,16.40
2008,09,28,15,14,16.40
2008,09,28,15,15,16.40
2008,09,28,15,16,16.40
2008,09,28,15,17,16.40
2008,09,28,15,18,16.50
2008,09,28,15,19,16.50
2008,09,28,15,20,16.60
2008,09,28,15,21,16.60
2008,09,28,15,22,16.70
2008,09,28,15,23,16.70
2008,09,28,15,24,16.80
2008,09,28,15,25,16.80
2008,09,28,15,26,16.80
2008,09,28,15,27,16.80
2008,09,28,15,28,16.80
2008,09,28,15,29,16.80
2008,09,28,15,30,16.90
2008,09,28,15,31,16.90
2008,09,28,15,32,16.90
2008,09,28,15,33,16.90
2008,09,28,15,34,16.90
2008,09,28,15,35,16.90
2008,09,28,15,36,16.90
2008,09,28,15,37,16.90
2008,09,28,15,38,16.90
2008,09,28,15,39,16.90
2008,09,28,15,40,16.70
2008,09,28,15,41,16.60
2008,09,28,15,42,16.60
2008,09,28,15,43,16.60
2008,09,28,15,44,16.50
2008,09,28,15,45,16.60
2008,09,28,15,46,16.60
2008,09,28,15,47,16.60
2008,09,28,15,48,16.60
2008,09,28,15,49,16.70
2008,09,28,15,50,16.70
2008,09,28,15,51,16.80
2008,09,28,15,52,16.70
2008,09,28,15,53,16.70
2008,09,28,15,54,16.70
2008,09,28,15,55,16.80
2008,09,28,15,56,16.80
2008,09,28,15,57,16.80
2008,09,28,15,58,16.90
2008,09,28,15,59,16.90
2008,09,28,16,00,17.00
2008,09,28,16,01,17.00
2008,09,28,16,02,17.10
2008,09,28,16,03,17.10
2008,09,28,16,04,17.10
2008,09,28,16,05,17.10
2008,09,28,16,06,17.10
2008,09,28,16,07,17.10
2008,09,28,16,08,17.20
2008,09,28,16,09,17.20
2008,09,28,16,10,17.20
2008,09,28,16,11,17.10
2008,09,28,16,12,17.20
2008,09,28,16,13,17.20
2008,09,28,16,14,17.30
2008,09,28,16,15,17.30
2008,09,28,16,16,17.20
2008,09,28,16,17,17.10
2008,09,28,16,18,17.10
2008,09,28,16,19,17.10
2008,09,28,16,20,17.10
2008,09,28,16,21,17.00
2008,09,28,16,22,17.00
2008,09,28,16,23,17.10
2008,09,28,16,24,17.10
2008,09,28,16,25,17.10
2008,09,28,16,26,17.20
2008,09,28,16,27,17.20
2008,09,28,16,28,17.20
2008,09,28,16,29,17.20
2008,09,28,16,30,17.20
2008,09,28,16,31,17.30
2008,09,28,16,32,17.20
2008,09,28,16,33,17.20
2008,09,28,16,34,17.20
2008,09,28,16,35,17.20
2008,09,28,16,36,17.20
2008,09,28,16,37,17.20
2008,09,28,16,38,17.20
2008,09,28,16,39,17.20
2008,09,28,16,40,17.30
2008,09,28,16,41,17.30
2008,09,28,16,42,17.30
2008,09,28,16,43,17.30
2008,09,28,16,44,17.30
2008,09,28,16,45,17.30
2008,09,28,16,46,17.30
2008,09,28,16,47,17.30
2008,09,28,16,48,17.30
2008,09,28,16,49,17.30
2008,09,28,16,50,17.30
2008,09,28,16,51,17.30
2008,09,28,16,52,17.30
2008,09,28,16,53,17.30
2008,09,28,16,54,17.30
2008,09,28,16,55,17.30
2008,09,28,16,56,17.30
2008,09,28,16,57,17.30
2008,09,28,16,58,17.20
2008,09,28,16,59,17.20
2008,09,28,17,00,17.30
2008,09,28,17,01,17.30
2008,09,28,17,02,17.30
2008,09,28,17,03,17.30
2008,09,28,17,04,17.30
2008,09,28,17,05,17.30
2008,09,28,17,06,17.40
2008,09,28,17,07,17.40
2008,09,28,17,08,17.40
2008,09,28,17,09,17.40
2008,09,28,17,10,17.50
2008,09,28,17,11,17.40
2008,09,28,17,12,17.30
2008,09,28,17,13,17.20
2008,09,28,17,14,17.20
2008,09,28,17,15,17.20
2008,09,28,17,16,17.10
2008,09,28,17,17,17.10
2008,09,28,17,18,17.10
2008,09,28,17,19,17.10
2008,09,28,17,20,17.00
2008,09,28,17,21,17.10
2008,09,28,17,22,17.10
2008,09,28,17,23,17.20
2008,09,28,17,24,17.20
2008,09,28,17,25,17.10
2008,09,28,17,26,17.10